SL-12 DEB, 29328

Orbit data source: Space-Track

SL-12 DEB, 29328 is space debris in HEO originally from a launch on Wed, 31 May 1989 UTC launched from the Tyuratam Missile And Space Complex (TTMTR). Debris objects in space refer to the collection of defunct objects orbiting the Earth. Examples of debris include non-operational satellites, rocket bodies, and fragments generated from explosions, collisions, or faulty payload assembly.

Loading next visibility...
Identifier
29328, 1989-039AK
Orbit
HEO
Country
Flag of CISCIS
Related business
Manufacturer
Unknown
Mission
Spacecraft
Bus & Motor
Unknown
Mass
Unknown
Launch date (UTC)
1989-05-31 (37 years ago)
Launch vehicle
Unknown
Launch site
Tyuratam Missile And Space Complex (TTMTR)
Object type
Payload
Rocket body
Debris
Shape & HBR
Unknown shape, 0.1 m
Radar Cross Section
Small (<0.1 m²)

Expand to show TLE details & history
Last TLE update: 3 days ago

TLE from 3 days ago
0 SL-12 DEB
1 29328U 89039AK  25340.18544414  .00000141  00000-0  22706-2 0  9993
2 29328  65.2795 261.0059 5502181 106.9414  11.7635  4.29081365302679
Epoch: 2025-12-06T04:27Z
TLE epoch observation values (Epoch: 2025-12-06T04:27:02.373Z)
Latitude
25.40637°
Longitude
-73.55037°
Altitude
1,647.585 km
Speed
8.63 km/s
True Right ascension
04h 33m 42s
True Declination
25° 17' 17"
Sunlit
Object was in full shadow at epoch
Visualization orbit readout
Latitude
Unknown
Longitude
Unknown
Altitude
Unknown
Speed
Unknown
Apparent Right ascension
Unknown
Apparent Declination
Unknown
Sunlit
N/A
Visualization observer readout
Local Sidereal Time
23:33:13
Azimuth
Unknown
Elevation
Unknown
Doppler factor
Unknown
Orbital elements
Apogee altitude
18,419.176 km
Perigee altitude
816.581 km
Semi-major axis
15,996.016 km
Eccentricity
0.55022
Inclination
65.2795°
RAAN
261.0059°
Arg. of periapsis
106.9414°
True anomaly
45.0292°
Mean anomaly
11.7635°
Eccentric anomaly
25.17265°
Mean motion
1.07282 °/min
Orbital period
335.57 mins
BSTAR
0.0022706
Loading maneuver chart data...
Computing Atmospheric mass density...

Documentation

Showing up to 5 results
|